Terminal Aerodrome Forecast
Issued by NWS Melbourne, FL

Home | Current Version | Previous Version | Text Only | Print | Product List | Glossary On
Versions: 1 2 3 4 5 6 7 8 9 10 11 12 13 14 15 16 17 18 19 20 21
000
FTUS42 KMLB 242300
TAFMLB
TAF
KMLB 242339Z 2500/2524 17005KT P6SM SCT250
     FM250300 19005KT P6SM SCT030 BKN250
     FM250800 19004KT 4SM BR BKN012
     FM251500 19009KT P6SM VCSH BKN012
     FM251800 18009KT P6SM VCTS BKN012CB=

USA.gov is the U.S. government's official web portal to all federal, state and local government web resources and services.